Asturias, Spain

1:21 PM CEST on June 24, 2017 (GMT +0200)
Asturias

Weather History for LEAS - October, 2012

Change the Weather History Date:

Saturday, October 6, 2012

  Actual Average Record
Temperature  
Mean Temperature 66 °F -  
Max Temperature 73 °F 63 °F 73 °F (2008)
Min Temperature 60 °F 52 °F 48 °F (2003)
Cooling Degree Days 2    
Growing Degree Days 16 (Base 50)    
Moisture  
Dew Point 54 °F    
Average Humidity 61    
Maximum Humidity 72    
Minimum Humidity 53    
Precipitation  
Precipitation 0.00 in - - ()
Sea Level Pressure  
Sea Level Pressure 30.02 in    
Wind  
Wind Speed 3 mph ()    
Max Wind Speed 7 mph    
Max Gust Speed -    
Visibility 6.2 miles    
Events Rain    
Averages and records for this station are not official NWS values.
T = Trace of Precipitation, MM = Missing Value Source: Averaged Metar Reports

Daily Weather History Graph

Daily Weather History Graph

Search for Another Location

Airport or City:

Trip Planner

Search our weather history database for the weather conditions in past years. The results will help you decide how hot, cold, wet, or windy it might be!

Date:

Astronomy

Oct. 06, 2012 Rise Set
Actual Time 8:27 AM CEST 7:55 PM CEST
Civil Twilight 7:59 AM CEST 8:24 PM CEST
Nautical Twilight 7:25 AM CEST 8:57 PM CEST
Astronomical Twilight 6:52 AM CEST 9:30 PM CEST
Moon 11:50 PM CEST (10/6) 2:20 PM CEST (10/6)
Length of Visible Light 12h 25m
Length of Day
11h 28m
Waning Gibbous, 68% of the Moon is Illuminated
Oct 6
Waning Gibbous
Oct 8
Last Quarter
Oct 15
New
Oct 22
First Quarter
Oct 29
Full

Hourly Weather History & Observations

Time (CEST) Temp. Dew Point Humidity Pressure Visibility Wind Dir Wind Speed Gust Speed Precip Events Conditions
6:00 AM 60.8 °F 48.2 °F 63% 29.98 in - Variable 1.2 mph - N/A   Clear
6:30 AM 60.8 °F 48.2 °F 63% 29.98 in - SW 3.5 mph - N/A   Clear
7:00 AM 60.8 °F 48.2 °F 63% 29.98 in - SW 5.8 mph - N/A   Clear
7:30 AM 60.8 °F 48.2 °F 63% 29.98 in - Variable 1.2 mph - N/A   Clear
8:00 AM 60.8 °F 48.2 °F 63% 29.98 in - Variable 1.2 mph - N/A   Clear
8:30 AM 60.8 °F 48.2 °F 63% 29.98 in - SSW 5.8 mph - N/A   Clear
9:00 AM 60.8 °F 48.2 °F 63% 29.98 in - Variable 1.2 mph - N/A   Clear
9:30 AM 62.6 °F 51.8 °F 68% 29.98 in - Variable 2.3 mph - N/A   Clear
10:00 AM 62.6 °F 51.8 °F 68% 29.98 in 6.2 mi SSE 3.5 mph - N/A Rain Light Rain
10:30 AM 62.6 °F 53.6 °F 72% 29.98 in 6.2 mi SSE 3.5 mph - N/A   Partly Cloudy
11:00 AM 64.4 °F 51.8 °F 64% 29.98 in 6.2 mi Variable 1.2 mph - N/A   Partly Cloudy
11:30 AM 64.4 °F 50.0 °F 59% 30.01 in - SW 4.6 mph - N/A   Clear
12:00 PM 68.0 °F 51.8 °F 56% 30.01 in - Calm Calm - N/A   Clear
12:30 PM 68.0 °F 51.8 °F 56% 30.01 in 6.2 mi Variable 1.2 mph - N/A   Partly Cloudy
1:00 PM 68.0 °F 55.4 °F 64% 30.01 in 6.2 mi Variable 1.2 mph - N/A   Partly Cloudy
1:30 PM 68.0 °F 55.4 °F 64% 30.04 in 6.2 mi Variable 2.3 mph - N/A   Partly Cloudy
2:00 PM 69.8 °F 53.6 °F 56% 30.04 in - Variable 2.3 mph - N/A   Clear
2:30 PM 69.8 °F 53.6 °F 56% 30.04 in 6.2 mi Variable 2.3 mph - N/A   Partly Cloudy
3:00 PM 69.8 °F 55.4 °F 60% 30.01 in 6.2 mi ESE 3.5 mph - N/A   Partly Cloudy
3:30 PM 69.8 °F 55.4 °F 60% 30.01 in 6.2 mi Variable 2.3 mph - N/A   Partly Cloudy
4:00 PM 71.6 °F 55.4 °F 57% 30.01 in 6.2 mi Variable 2.3 mph - N/A   Partly Cloudy
4:30 PM 73.4 °F 57.2 °F 57% 30.01 in 6.2 mi Variable 1.2 mph - N/A   Scattered Clouds
5:00 PM 73.4 °F 59.0 °F 61% 30.01 in 6.2 mi Calm Calm - N/A   Scattered Clouds
5:30 PM 71.6 °F 59.0 °F 64% 30.04 in 6.2 mi Variable 2.3 mph - N/A   Partly Cloudy
6:00 PM 71.6 °F 57.2 °F 60% 30.04 in 6.2 mi Variable 1.2 mph - N/A   Partly Cloudy
6:30 PM 71.6 °F 59.0 °F 64% 30.01 in - Variable 1.2 mph - N/A   Clear
7:00 PM 73.4 °F 55.4 °F 53% 30.04 in - SSW 5.8 mph - N/A   Clear
7:30 PM 71.6 °F 57.2 °F 60% 30.04 in - WSW 5.8 mph - N/A   Clear
8:00 PM 71.6 °F 55.4 °F 57% 30.04 in 6.2 mi SW 5.8 mph - N/A   Partly Cloudy
8:30 PM 69.8 °F 57.2 °F 64% 30.06 in 6.2 mi WNW 4.6 mph - N/A Rain Light Rain
9:00 PM 71.6 °F 57.2 °F 60% 30.06 in 6.2 mi West 6.9 mph - N/A Rain Light Rain
9:30 PM 71.6 °F 57.2 °F 60% 30.06 in 6.2 mi WSW 6.9 mph - N/A   Mostly Cloudy
10:00 PM 69.8 °F 57.2 °F 64% 30.06 in 6.2 mi West 5.8 mph - N/A   Mostly Cloudy
10:30 PM 71.6 °F 57.2 °F 60% 30.06 in 6.2 mi WSW 5.8 mph - N/A   Mostly Cloudy
11:00 PM 71.6 °F 57.2 °F 60% 30.06 in 6.2 mi WSW 6.9 mph - N/A   Scattered Clouds
11:30 PM 71.6 °F 57.2 °F 60% 30.06 in 6.2 mi WSW 4.6 mph - N/A Rain Light Rain